Time,TemperatureF,DewpointF,PressureIn,WindDirection,WindDirectionDegrees,WindSpeedMPH,WindSpeedGustMPH,Humidity,HourlyPrecipIn,Conditions,Clouds,dailyrainin,SoftwareType,DateUTC
2013-05-09 00:01:00,52.0,48.0,30.15,NNW,329,5.0,10.0,87,0.00,,,0.00,,2013-05-09 07:01:00,
2013-05-09 00:12:00,52.0,49.0,30.15,West,280,4.0,9.0,88,0.00,,,0.00,,2013-05-09 07:12:00,
2013-05-09 00:21:00,52.0,49.0,30.15,West,280,4.0,9.0,88,0.00,,,0.00,,2013-05-09 07:21:00,
2013-05-09 00:31:00,52.0,48.0,30.15,North,357,6.0,14.0,87,0.00,,,0.00,,2013-05-09 07:31:00,
2013-05-09 00:42:00,52.0,48.0,30.15,NW,322,3.0,14.0,87,0.00,,,0.00,,2013-05-09 07:42:00,
2013-05-09 00:52:00,52.0,48.0,30.15,NW,322,3.0,14.0,87,0.00,,,0.00,,2013-05-09 07:52:00,
2013-05-09 01:02:00,52.0,48.0,30.14,NNW,347,8.0,14.0,87,0.00,,,0.00,,2013-05-09 08:02:00,
2013-05-09 01:11:00,52.0,48.0,30.15,North,352,4.0,13.0,86,0.00,,,0.00,,2013-05-09 08:11:00,
2013-05-09 01:21:00,52.0,48.0,30.15,North,352,4.0,13.0,86,0.00,,,0.00,,2013-05-09 08:21:00,
2013-05-09 01:31:00,52.0,48.0,30.15,NW,326,7.0,14.0,87,0.00,,,0.00,,2013-05-09 08:31:00,
2013-05-09 01:41:00,52.0,48.0,30.15,North,4,8.0,15.0,85,0.00,,,0.00,,2013-05-09 08:41:00,
2013-05-09 01:52:00,52.0,48.0,30.15,North,4,8.0,15.0,85,0.00,,,0.00,,2013-05-09 08:52:00,
2013-05-09 02:01:00,52.0,48.0,30.15,North,355,12.0,17.0,87,0.00,,,0.00,,2013-05-09 09:01:00,
2013-05-09 02:11:00,52.0,48.0,30.15,North,355,12.0,17.0,87,0.00,,,0.00,,2013-05-09 09:11:00,
2013-05-09 02:21:00,51.0,48.0,30.15,North,2,6.0,17.0,89,0.00,,,0.00,,2013-05-09 09:21:00,
2013-05-09 02:32:00,51.0,48.0,30.16,NW,315,6.0,15.0,89,0.00,,,0.00,,2013-05-09 09:32:00,
2013-05-09 02:42:00,52.0,49.0,30.15,North,355,13.0,16.0,88,0.00,,,0.00,,2013-05-09 09:42:00,
2013-05-09 02:53:00,52.0,49.0,30.15,North,355,13.0,16.0,88,0.00,,,0.00,,2013-05-09 09:53:00,
2013-05-09 03:02:00,52.0,49.0,30.16,NNW,348,8.0,11.0,89,0.00,,,0.00,,2013-05-09 10:02:00,
2013-05-09 03:12:00,52.0,49.0,30.16,NNW,348,8.0,11.0,89,0.00,,,0.00,,2013-05-09 10:12:00,
2013-05-09 03:22:00,52.0,49.0,30.16,NNW,348,8.0,11.0,89,0.00,,,0.00,,2013-05-09 10:22:00,
2013-05-09 03:32:00,52.0,49.0,30.15,NW,323,7.0,14.0,89,0.00,,,0.00,,2013-05-09 10:32:00,
2013-05-09 03:41:00,52.0,49.0,30.15,NW,320,10.0,14.0,89,0.00,,,0.00,,2013-05-09 10:41:00,
2013-05-09 03:52:00,52.0,49.0,30.15,NW,320,10.0,14.0,89,0.00,,,0.00,,2013-05-09 10:52:00,
2013-05-09 04:02:00,51.0,48.0,30.15,NNW,327,6.0,15.0,89,0.00,,,0.00,,2013-05-09 11:02:00,
2013-05-09 04:11:00,51.0,48.0,30.15,North,352,9.0,15.0,89,0.00,,,0.00,,2013-05-09 11:11:00,
2013-05-09 04:22:00,51.0,48.0,30.15,North,352,9.0,15.0,89,0.00,,,0.00,,2013-05-09 11:22:00,
2013-05-09 04:32:00,51.0,48.0,30.16,NNW,348,4.0,16.0,90,0.00,,,0.00,,2013-05-09 11:32:00,
2013-05-09 04:41:00,51.0,48.0,30.15,NNW,338,8.0,13.0,90,0.00,,,0.00,,2013-05-09 11:41:00,
2013-05-09 04:52:00,51.0,48.0,30.15,NNW,338,8.0,13.0,90,0.00,,,0.00,,2013-05-09 11:52:00,
2013-05-09 05:01:00,51.0,48.0,30.15,NW,320,12.0,17.0,90,0.00,,,0.00,,2013-05-09 12:01:00,
2013-05-09 05:11:00,51.0,48.0,30.16,North,352,8.0,17.0,91,0.00,,,0.00,,2013-05-09 12:11:00,
2013-05-09 05:21:00,51.0,48.0,30.16,North,352,8.0,17.0,91,0.00,,,0.00,,2013-05-09 12:21:00,
2013-05-09 05:31:00,51.0,48.0,30.15,North,355,10.0,15.0,90,0.00,,,0.00,,2013-05-09 12:31:00,
2013-05-09 05:42:00,51.0,48.0,30.15,North,357,9.0,16.0,91,0.00,,,0.00,,2013-05-09 12:42:00,
2013-05-09 05:52:00,51.0,48.0,30.15,North,357,9.0,16.0,91,0.00,,,0.00,,2013-05-09 12:52:00,
2013-05-09 06:01:00,51.0,48.0,30.15,North,357,10.0,15.0,90,0.00,,,0.00,,2013-05-09 13:01:00,
2013-05-09 06:11:00,51.0,48.0,30.15,North,351,5.0,12.0,90,0.00,,,0.00,,2013-05-09 13:11:00,
2013-05-09 06:21:00,51.0,48.0,30.15,North,351,5.0,12.0,90,0.00,,,0.00,,2013-05-09 13:21:00,
2013-05-09 06:31:00,51.0,48.0,30.15,North,350,0.0,8.0,90,0.00,,,0.00,,2013-05-09 13:31:00,
2013-05-09 06:42:00,51.0,48.0,30.16,North,0,0.0,0.0,89,0.00,,,0.00,,2013-05-09 13:42:00,
2013-05-09 06:52:00,51.0,48.0,30.16,North,0,0.0,0.0,89,0.00,,,0.00,,2013-05-09 13:52:00,
2013-05-09 07:01:00,52.0,49.0,30.16,North,0,0.0,4.0,91,0.00,,,0.00,,2013-05-09 14:01:00,
2013-05-09 07:11:00,51.0,49.0,30.16,North,0,0.0,0.0,92,0.00,,,0.00,,2013-05-09 14:11:00,
2013-05-09 07:21:00,51.0,49.0,30.16,North,0,0.0,0.0,92,0.00,,,0.00,,2013-05-09 14:21:00,
2013-05-09 07:32:00,52.0,50.0,30.16,North,0,0.0,0.0,93,0.00,,,0.00,,2013-05-09 14:32:00,
2013-05-09 07:41:00,52.0,50.0,30.17,North,0,0.0,0.0,92,0.00,,,0.00,,2013-05-09 14:41:00,
2013-05-09 07:52:00,52.0,50.0,30.17,North,0,0.0,0.0,92,0.00,,,0.00,,2013-05-09 14:52:00,
2013-05-09 08:01:00,52.0,50.0,30.17,North,0,0.0,0.0,93,0.00,,,0.00,,2013-05-09 15:01:00,
2013-05-09 08:11:00,52.0,50.0,30.16,North,0,0.0,0.0,93,0.00,,,0.00,,2013-05-09 15:11:00,
2013-05-09 08:21:00,52.0,50.0,30.16,North,0,0.0,0.0,93,0.00,,,0.00,,2013-05-09 15:21:00,
2013-05-09 08:32:00,52.0,50.0,30.17,North,0,0.0,0.0,93,0.00,,,0.00,,2013-05-09 15:32:00,
2013-05-09 08:42:00,52.0,50.0,30.17,North,0,0.0,0.0,92,0.00,,,0.00,,2013-05-09 15:42:00,
2013-05-09 08:53:00,52.0,50.0,30.17,North,0,0.0,0.0,92,0.00,,,0.00,,2013-05-09 15:53:00,
2013-05-09 09:03:00,53.0,50.0,30.17,North,0,2.0,2.0,90,0.00,,,0.00,,2013-05-09 16:03:00,
2013-05-09 09:12:00,53.0,50.0,30.17,NNW,337,0.0,6.0,90,0.00,,,0.00,,2013-05-09 16:12:00,
2013-05-09 09:22:00,53.0,50.0,30.17,NNW,337,0.0,6.0,90,0.00,,,0.00,,2013-05-09 16:22:00,
2013-05-09 09:32:00,53.0,50.0,30.17,NW,326,0.0,8.0,90,0.00,,,0.00,,2013-05-09 16:32:00,
2013-05-09 09:41:00,53.0,50.0,30.17,North,0,0.0,0.0,89,0.00,,,0.00,,2013-05-09 16:41:00,
2013-05-09 09:52:00,53.0,50.0,30.17,North,0,0.0,0.0,89,0.00,,,0.00,,2013-05-09 16:52:00,
2013-05-09 10:02:00,54.0,51.0,30.17,NW,322,0.0,4.0,91,0.00,,,0.00,,2013-05-09 17:02:00,
2013-05-09 10:12:00,54.0,51.0,30.17,NW,322,0.0,4.0,91,0.00,,,0.00,,2013-05-09 17:12:00,
2013-05-09 10:21:00,54.0,51.0,30.17,North,0,0.0,4.0,91,0.00,,,0.00,,2013-05-09 17:21:00,
2013-05-09 10:32:00,55.0,52.0,30.17,North,0,0.0,0.0,91,0.00,,,0.00,,2013-05-09 17:32:00,
2013-05-09 10:41:00,56.0,53.0,30.17,North,4,0.0,7.0,89,0.00,,,0.00,,2013-05-09 17:41:00,
2013-05-09 10:54:00,56.0,53.0,30.17,North,4,0.0,7.0,89,0.00,,,0.00,,2013-05-09 17:54:00,
2013-05-09 11:01:00,57.0,54.0,30.17,North,0,0.0,0.0,89,0.00,,,0.00,,2013-05-09 18:01:00,
2013-05-09 11:12:00,59.0,55.0,30.17,North,0,0.0,6.0,87,0.00,,,0.00,,2013-05-09 18:12:00,
2013-05-09 11:21:00,59.0,55.0,30.17,North,0,0.0,6.0,87,0.00,,,0.00,,2013-05-09 18:21:00,
2013-05-09 11:31:00,60.0,55.0,30.17,North,0,0.0,7.0,85,0.00,,,0.00,,2013-05-09 18:31:00,
2013-05-09 11:41:00,61.0,56.0,30.17,North,351,5.0,6.0,83,0.00,,,0.00,,2013-05-09 18:41:00,
2013-05-09 11:52:00,61.0,56.0,30.17,North,351,5.0,6.0,83,0.00,,,0.00,,2013-05-09 18:52:00,
2013-05-09 12:01:00,61.0,54.0,30.17,North,351,3.0,9.0,77,0.00,,,0.00,,2013-05-09 19:01:00,
2013-05-09 12:11:00,61.0,54.0,30.17,North,351,3.0,9.0,77,0.00,,,0.00,,2013-05-09 19:11:00,
2013-05-09 12:21:00,60.0,53.0,30.16,NNW,329,6.0,12.0,77,0.00,,,0.00,,2013-05-09 19:21:00,
2013-05-09 12:31:00,61.0,52.0,30.16,NNW,345,7.0,11.0,72,0.00,,,0.00,,2013-05-09 19:31:00,
2013-05-09 12:41:00,61.0,52.0,30.15,North,351,6.0,11.0,72,0.00,,,0.00,,2013-05-09 19:41:00,
2013-05-09 12:52:00,61.0,52.0,30.15,North,351,6.0,11.0,72,0.00,,,0.00,,2013-05-09 19:52:00,
2013-05-09 13:01:00,60.0,51.0,30.16,NW,320,8.0,12.0,72,0.00,,,0.00,,2013-05-09 20:01:00,
2013-05-09 13:11:00,60.0,50.0,30.16,North,2,7.0,11.0,70,0.00,,,0.00,,2013-05-09 20:11:00,
2013-05-09 13:21:00,60.0,50.0,30.16,North,2,7.0,11.0,70,0.00,,,0.00,,2013-05-09 20:21:00,
2013-05-09 13:32:00,61.0,52.0,30.15,NW,326,8.0,14.0,71,0.00,,,0.00,,2013-05-09 20:32:00,
2013-05-09 13:42:00,60.0,50.0,30.16,NW,320,10.0,15.0,70,0.00,,,0.00,,2013-05-09 20:42:00,
2013-05-09 13:52:00,60.0,50.0,30.16,NW,320,10.0,15.0,70,0.00,,,0.00,,2013-05-09 20:52:00,
2013-05-09 14:01:00,59.0,50.0,30.16,NW,322,11.0,19.0,72,0.00,,,0.00,,2013-05-09 21:01:00,
2013-05-09 14:11:00,59.0,50.0,30.16,NNW,329,14.0,20.0,72,0.00,,,0.00,,2013-05-09 21:11:00,
2013-05-09 14:22:00,59.0,50.0,30.16,NNW,329,14.0,20.0,72,0.00,,,0.00,,2013-05-09 21:22:00,
2013-05-09 14:32:00,59.0,50.0,30.15,NW,310,10.0,18.0,73,0.00,,,0.00,,2013-05-09 21:32:00,
2013-05-09 14:42:00,59.0,49.0,30.14,NNW,327,13.0,19.0,70,0.00,,,0.00,,2013-05-09 21:42:00,
2013-05-09 14:52:00,59.0,49.0,30.14,NNW,327,13.0,19.0,70,0.00,,,0.00,,2013-05-09 21:52:00,
2013-05-09 15:02:00,59.0,50.0,30.14,NNW,327,13.0,20.0,71,0.00,,,0.00,,2013-05-09 22:02:00,
2013-05-09 15:12:00,58.0,49.0,30.14,NNW,329,12.0,21.0,71,0.00,,,0.00,,2013-05-09 22:12:00,
2013-05-09 15:22:00,58.0,49.0,30.14,NNW,329,12.0,21.0,71,0.00,,,0.00,,2013-05-09 22:22:00,
2013-05-09 15:32:00,58.0,48.0,30.14,NNW,327,12.0,18.0,70,0.00,,,0.00,,2013-05-09 22:32:00,
2013-05-09 15:42:00,58.0,49.0,30.13,NW,315,12.0,20.0,72,0.00,,,0.00,,2013-05-09 22:42:00,
2013-05-09 15:52:00,58.0,49.0,30.13,NW,315,12.0,20.0,72,0.00,,,0.00,,2013-05-09 22:52:00,
2013-05-09 16:02:00,57.0,49.0,30.13,NW,323,13.0,21.0,74,0.00,,,0.00,,2013-05-09 23:02:00,
2013-05-09 16:11:00,57.0,49.0,30.13,NW,324,11.0,22.0,75,0.00,,,0.00,,2013-05-09 23:11:00,
2013-05-09 16:21:00,57.0,49.0,30.13,NW,324,11.0,22.0,75,0.00,,,0.00,,2013-05-09 23:21:00,
2013-05-09 16:32:00,58.0,50.0,30.12,North,352,11.0,18.0,74,0.00,,,0.00,,2013-05-09 23:32:00,
2013-05-09 16:42:00,59.0,49.0,30.12,NW,320,15.0,17.0,69,0.00,,,0.00,,2013-05-09 23:42:00,
2013-05-09 16:52:00,59.0,49.0,30.12,NW,320,15.0,17.0,69,0.00,,,0.00,,2013-05-09 23:52:00,
2013-05-09 17:01:00,57.0,49.0,30.12,NNW,344,12.0,23.0,75,0.00,,,0.00,,2013-05-10 00:01:00,
2013-05-09 17:11:00,58.0,49.0,30.11,NNW,334,12.0,21.0,73,0.00,,,0.00,,2013-05-10 00:11:00,
2013-05-09 17:21:00,58.0,49.0,30.11,NNW,334,12.0,21.0,73,0.00,,,0.00,,2013-05-10 00:21:00,
2013-05-09 17:31:00,58.0,50.0,30.11,North,0,13.0,19.0,74,0.00,,,0.00,,2013-05-10 00:31:00,
2013-05-09 17:42:00,59.0,50.0,30.10,NW,322,10.0,17.0,72,0.00,,,0.00,,2013-05-10 00:42:00,
2013-05-09 17:52:00,59.0,50.0,30.10,NW,322,10.0,17.0,72,0.00,,,0.00,,2013-05-10 00:52:00,
2013-05-09 18:01:00,59.0,50.0,30.10,NW,322,10.0,17.0,72,0.00,,,0.00,,2013-05-10 01:01:00,
2013-05-09 18:11:00,58.0,49.0,30.11,NW,320,9.0,18.0,73,0.00,,,0.00,,2013-05-10 01:11:00,
2013-05-09 18:21:00,58.0,49.0,30.11,NW,320,9.0,18.0,73,0.00,,,0.00,,2013-05-10 01:21:00,
2013-05-09 18:31:00,58.0,50.0,30.10,NNW,348,11.0,16.0,75,0.00,,,0.00,,2013-05-10 01:31:00,
2013-05-09 18:42:00,57.0,50.0,30.10,North,352,10.0,17.0,76,0.00,,,0.00,,2013-05-10 01:42:00,
2013-05-09 18:52:00,57.0,50.0,30.10,North,352,10.0,17.0,76,0.00,,,0.00,,2013-05-10 01:52:00,
2013-05-09 19:01:00,56.0,50.0,30.10,NW,322,11.0,17.0,79,0.00,,,0.00,,2013-05-10 02:01:00,
2013-05-09 19:11:00,55.0,49.0,30.10,NW,323,13.0,21.0,80,0.00,,,0.00,,2013-05-10 02:11:00,
2013-05-09 19:21:00,55.0,49.0,30.10,NW,323,13.0,21.0,80,0.00,,,0.00,,2013-05-10 02:21:00,
2013-05-09 19:31:00,54.0,49.0,30.10,NW,320,11.0,19.0,84,0.00,,,0.00,,2013-05-10 02:31:00,
2013-05-09 19:42:00,54.0,50.0,30.11,North,352,14.0,21.0,86,0.00,,,0.00,,2013-05-10 02:42:00,
2013-05-09 19:52:00,54.0,50.0,30.11,North,352,14.0,21.0,86,0.00,,,0.00,,2013-05-10 02:52:00,
2013-05-09 20:01:00,53.0,50.0,30.11,NW,322,16.0,25.0,88,0.00,,,0.00,,2013-05-10 03:01:00,
2013-05-09 20:11:00,52.0,49.0,30.10,NW,313,16.0,27.0,90,0.00,,,0.00,,2013-05-10 03:11:00,
2013-05-09 20:21:00,52.0,49.0,30.10,NW,313,16.0,27.0,90,0.00,,,0.00,,2013-05-10 03:21:00,
2013-05-09 20:32:00,52.0,49.0,30.11,NNW,345,15.0,26.0,89,0.00,,,0.00,,2013-05-10 03:32:00,
2013-05-09 20:42:00,52.0,49.0,30.11,NNW,329,17.0,25.0,89,0.00,,,0.00,,2013-05-10 03:42:00,
2013-05-09 20:53:00,52.0,49.0,30.11,NNW,329,17.0,25.0,89,0.00,,,0.00,,2013-05-10 03:53:00,
2013-05-09 21:02:00,52.0,49.0,30.11,NNW,341,15.0,25.0,89,0.00,,,0.00,,2013-05-10 04:02:00,
2013-05-09 21:12:00,52.0,49.0,30.11,North,351,19.0,26.0,90,0.00,,,0.00,,2013-05-10 04:12:00,
2013-05-09 21:22:00,52.0,49.0,30.11,North,351,19.0,26.0,90,0.00,,,0.00,,2013-05-10 04:22:00,
2013-05-09 21:33:00,52.0,49.0,30.13,NNW,347,13.0,22.0,90,0.00,,,0.00,,2013-05-10 04:33:00,
2013-05-09 21:42:00,52.0,49.0,30.12,North,357,14.0,20.0,90,0.00,,,0.00,,2013-05-10 04:42:00,
2013-05-09 21:52:00,52.0,49.0,30.12,North,357,14.0,20.0,90,0.00,,,0.00,,2013-05-10 04:52:00,
2013-05-09 22:02:00,52.0,49.0,30.12,North,350,8.0,20.0,90,0.00,,,0.00,,2013-05-10 05:02:00,
2013-05-09 22:12:00,52.0,49.0,30.13,North,351,10.0,19.0,90,0.00,,,0.00,,2013-05-10 05:12:00,
2013-05-09 22:21:00,52.0,49.0,30.13,North,351,10.0,19.0,90,0.00,,,0.00,,2013-05-10 05:21:00,
2013-05-09 22:32:00,52.0,49.0,30.13,North,355,12.0,15.0,89,0.00,,,0.00,,2013-05-10 05:32:00,
2013-05-09 22:42:00,52.0,49.0,30.13,North,355,8.0,13.0,90,0.00,,,0.00,,2013-05-10 05:42:00,
2013-05-09 22:52:00,52.0,49.0,30.13,North,355,8.0,13.0,90,0.00,,,0.00,,2013-05-10 05:52:00,
2013-05-09 23:01:00,52.0,49.0,30.12,NNW,327,5.0,12.0,89,0.00,,,0.00,,2013-05-10 06:01:00,
2013-05-09 23:11:00,52.0,49.0,30.12,NNW,345,12.0,14.0,89,0.00,,,0.00,,2013-05-10 06:11:00,
2013-05-09 23:21:00,52.0,49.0,30.12,NNW,345,12.0,14.0,89,0.00,,,0.00,,2013-05-10 06:21:00,
2013-05-09 23:32:00,52.0,48.0,30.11,NNW,347,14.0,16.0,87,0.00,,,0.00,,2013-05-10 06:32:00,
2013-05-09 23:41:00,52.0,48.0,30.12,North,352,4.0,14.0,87,0.00,,,0.00,,2013-05-10 06:41:00,
2013-05-09 23:52:00,52.0,48.0,30.12,North,352,4.0,14.0,87,0.00,,,0.00,,2013-05-10 06:52:00,